Home   Weather   Svolvær   Past weeks

Flag for Norway Past Weather in Svolvær, Norway — Yesterday and Last 2 Weeks

Now
37 °F

Chilly.


Feels Like: 33 °F
Forecast: 40 / 42 °F
Wind: 5 mph from West

Location: Skrova Fyr

Current Time: Dec 6, 2016 at 4:01:34 am

Latest Report: Dec 6, 2016 at 3:00 am


Visibility: N/A

Pressure: 30.08 "Hg

Humidity: 66%

Dew Point: 27 °F

Location of SvolværLocation

Past Weather in Svolvær — Graph

°F

Svolvær Temperature Yesterday

Maximum temperature yesterday: 40 °F (at 12:00 am)
Minimum temperature yesterday: 35 °F (at 2:00 pm)
Average temperature yesterday: 37 °F

High & Low Weather Summary for the Past Weeks

 TemperatureHumidityPressure
High46 °F (Nov 29, 10:00 am)100% (Nov 28, 10:00 am)30.19 "Hg (Nov 28, 10:00 am)
Low31 °F (Dec 3, 1:00 am)41% (Dec 2, 2:00 am)29.06 "Hg (Nov 29, 10:00 pm)
Average38 °F81%29.67 "Hg
* Reported Nov 21 2:00 am — Dec 6 2:00 am, Svolvær, Weather by CustomWeather, © 2016

Note: Actual official high and low records may vary slightly from our data, if they occured in-between our weather recording intervals... More about our weather records

Advertising

Svolvær Weather History for the Previous 24 Hours

Scroll right to see more
 ConditionsComfort  
Time TempWeatherWind HumidityBarometerVisibility
2:00 am
Tue, Dec 6
35 °FChilly.1 mph90%30.07 "HgN/A
1:00 am36 °FChilly.7 mph88%30.07 "HgN/A
12:00 am34 °FChilly.2 mph94%30.06 "HgN/A
11:00 pm
Mon, Dec 5
35 °FChilly.3 mph93%30.05 "HgN/A
10:00 pm36 °FChilly.3 mph92%30.03 "HgN/A
9:00 pm36 °FChilly.8 mph85%30.01 "HgN/A
8:00 pm35 °FChilly.3 mph94%29.99 "HgN/A
7:00 pm35 °FPassing clouds.8 mph97%29.98 "Hg47 mi
6:00 pm36 °FChilly.7 mph86%29.95 "HgN/A
5:00 pm36 °FChilly.8 mph83%29.91 "HgN/A
4:00 pm35 °FChilly.12 mph94%29.89 "HgN/A
3:00 pm35 °FChilly.7 mph98%29.87 "HgN/A
2:00 pm35 °FChilly.6 mph99%29.83 "HgN/A
1:00 pm35 °FChilly.8 mph97%29.80 "HgN/A
12:00 pm38 °FChilly.10 mph73%29.76 "HgN/A
11:00 am38 °FChilly.7 mph74%29.75 "HgN/A
10:00 am35 °FChilly.8 mph96%29.73 "HgN/A
9:00 am39 °FChilly.9 mph58%29.69 "HgN/A
8:00 am39 °FChilly.12 mph63%29.65 "HgN/A
7:00 am40 °FOvercast.10 mph63%29.62 "Hg47 mi
6:00 am38 °FChilly.8 mph75%29.60 "HgN/A
5:00 am40 °FChilly.10 mph61%29.57 "HgN/A
4:00 am39 °FChilly.14 mph67%29.54 "HgN/A
Weather by CustomWeather, © 2016

See weather overviewHow to use our weather pages